EST,Max TemperatureF,Mean TemperatureF,Min TemperatureF,Max Dew PointF,MeanDew PointF,Min DewpointF,Max Humidity, Mean Humidity, Min Humidity, Max Sea Level PressureIn, Mean Sea Level PressureIn, Min Sea Level PressureIn, Max VisibilityMiles, Mean VisibilityMiles, Min VisibilityMiles, Max Wind SpeedMPH, Mean Wind SpeedMPH, Max Gust SpeedMPH,PrecipitationIn, CloudCover, Events, WindDirDegrees
2013-1-1,73,62,50,63,56,46,94,80,60,30.21,30.08,30.00,10,10,7,15,5,21,0.00,3,,185
2013-1-2,68,64,59,66,58,52,100,83,64,30.13,30.04,29.95,10,9,3,15,6,23,0.00,8,Rain,308
2013-1-3,59,52,44,52,46,41,100,83,67,30.30,30.20,30.10,10,9,5,10,4,,0.00,6,Rain,350
2013-1-4,53,46,39,45,42,36,100,86,62,30.38,30.33,30.28,10,8,4,8,3,,0.00,1,,354
2013-1-5,59,49,39,45,36,28,93,63,34,30.39,30.33,30.28,10,10,7,7,2,,0.00,1,Rain,27
2013-1-6,55,52,48,48,44,41,93,75,58,30.27,30.22,30.16,10,10,10,6,2,,0.00,6,Rain,9
2013-1-7,59,50,42,45,40,36,87,68,51,30.34,30.28,30.24,10,10,10,12,6,,0.00,1,,52
2013-1-8,71,60,50,61,50,39,88,72,57,30.34,30.27,30.23,10,10,10,7,4,,0.00,5,,69
2013-1-9,73,66,59,66,61,55,100,88,73,30.37,30.31,30.26,10,7,1,7,3,,0.00,6,,66
2013-1-10,73,70,68,68,67,64,100,89,78,30.36,30.31,30.26,10,8,1,8,4,16,0.00,7,,98
2013-1-11,78,70,60,66,63,59,100,81,54,30.26,30.21,30.16,10,8,4,10,4,,0.00,2,,173
2013-1-12,80,68,57,64,60,55,100,82,51,30.20,30.15,30.10,10,8,2,9,1,,0.00,1,,194
2013-1-13,78,68,59,68,62,59,100,82,54,30.16,30.11,30.07,10,8,3,13,3,18,0.00,1,,174
2013-1-14,78,70,62,66,62,59,100,79,51,30.19,30.14,30.10,10,8,2,13,3,18,0.00,2,,187
2013-1-15,80,68,57,64,60,55,100,78,47,30.15,30.09,30.04,10,8,2,14,3,21,0.00,2,,179
2013-1-16,80,72,64,68,64,63,100,82,54,30.08,30.02,29.97,10,10,7,14,5,20,0.00,5,Rain,191
2013-1-17,69,56,42,68,52,32,100,81,51,30.19,29.99,29.92,10,9,2,24,9,34,0.00,7,Rain,237
2013-1-18,60,50,41,41,33,23,93,59,23,30.45,30.38,30.21,10,10,10,14,6,20,0.00,0,,27
2013-1-19,68,55,42,50,40,28,88,62,43,30.42,30.33,30.24,10,10,7,9,3,,0.00,1,,61
2013-1-20,68,56,44,46,45,43,100,71,40,30.26,30.19,30.12,10,9,3,9,1,16,0.00,1,,309
2013-1-21,68,54,41,45,41,36,100,68,30,30.19,30.12,30.08,10,9,5,8,1,,0.00,0,,316
2013-1-22,59,50,39,37,30,23,81,52,25,30.34,30.27,30.15,10,10,5,10,6,,0.00,0,,343
2013-1-23,62,48,33,43,35,27,93,66,38,30.44,30.35,30.29,10,8,3,10,1,,0.00,1,,299
2013-1-24,71,58,46,52,49,41,100,74,50,30.32,30.27,30.23,10,8,2,15,5,22,0.00,1,,269
2013-1-25,71,58,46,54,46,32,87,63,41,30.36,30.27,30.18,10,10,4,14,5,17,0.00,3,,169
2013-1-26,73,64,55,59,56,50,100,81,57,30.27,30.21,30.18,10,8,5,10,4,,0.00,3,,278
2013-1-27,71,58,46,54,48,37,82,66,46,30.38,30.33,30.27,10,10,7,9,3,,0.00,1,,88
2013-1-28,78,64,51,61,56,50,100,80,51,30.39,30.32,30.26,10,8,0,9,3,,0.00,4,Fog,124
2013-1-29,82,70,57,64,60,55,100,78,45,30.27,30.16,30.07,10,8,3,12,3,20,0.00,3,,163
2013-1-30,77,66,55,68,63,48,94,82,65,30.07,29.89,29.70,10,10,3,22,11,41,0.00,7,Rain-Thunderstorm,194
2013-1-31,57,49,41,46,33,23,76,56,27,30.28,30.15,29.93,10,10,10,17,9,29,0.00,1,,289